Probability
10 10 9 8 5 2 0 0 0 0 1 2 2 1 1 1 1 0 0 0 0 0 0 0 0 0 1 2 3 3 3 4 5 6 5 5 5 6 7 7 7 7 8
10 10 10 9 6 2 0 0 0 0 0 1 1 1 1 1 0 0 0 0 0 0 0 0 0 0 1 2 3 3 3 3 5 6 5 5 6 6 7 8 8 8 8
9 9 11 12 8 4 1 0 0 0 0 0 0 1 1 0 0 0 0 0 0 0 0 0 0 0 1 2 3 3 3 3 4 4 4 4 5 6 7 8 9 8 8
9 9 11 13 11 6 2 1 1 0 0 0 0 1 1 0 0 0 0 0 0 0 0 0 0 0 1 2 3 3 3 3 3 3 1 1 3 6 8 10 10 9 8
10 10 11 13 13 9 4 1 1 1 1 0 0 1 1 0 0 0 0 0 0 0 0 0 0 0 1 2 3 4 3 3 3 2 1 0 2 6 9 11 12 10 8
9 10 11 13 13 11 8 4 2 3 3 1 1 1 1 1 0 0 0 0 0 0 0 0 0 0 0 1 4 5 4 4 3 2 0 0 2 6 9 10 10 8 7
8 9 11 12 13 13 12 9 6 6 6 4 3 3 3 2 1 1 1 1 0 0 0 0 0 0 0 2 4 5 4 3 2 1 0 0 2 6 9 9 8 7 7
8 9 10 11 13 15 15 13 10 9 8 5 4 5 5 4 3 2 2 2 1 0 0 0 0 0 0 2 3 4 3 3 2 0 0 1 4 7 9 9 8 8 7
9 9 9 9 11 14 16 14 12 10 8 6 6 6 6 5 5 4 4 4 3 2 2 1 0 0 0 1 3 4 4 3 2 1 0 2 6 9 9 8 8 9 8
10 10 10 10 11 13 14 14 12 11 10 8 7 6 6 6 6 6 6 5 5 5 5 5 3 1 0 1 3 4 4 4 2 1 0 2 6 10 10 8 9 9 8
13 13 12 11 10 11 11 13 13 12 13 11 9 8 8 7 7 7 7 7 8 7 6 7 6 3 1 1 2 3 3 3 3 1 0 2 7 12 11 10 9 9 8
16 16 14 11 10 9 9 11 11 12 15 14 11 11 11 9 8 8 10 11 10 7 6 7 6 4 2 1 1 2 3 3 3 2 2 4 10 14 13 12 11 12 11
15 16 15 13 10 8 8 10 11 11 13 13 12 12 12 10 9 11 13 13 10 8 8 8 7 5 3 2 2 2 2 3 3 3 4 9 13 15 15 13 13 13 13
14 16 17 15 11 9 10 10 11 11 10 10 11 12 11 10 10 13 14 12 10 8 8 9 8 6 4 3 2 2 1 1 2 3 5 9 13 15 15 14 13 13 12
17 19 19 18 14 12 12 12 12 11 9 9 11 12 12 11 11 13 13 11 9 7 8 9 9 7 5 4 3 1 1 1 1 2 4 7 10 12 13 12 12 12 12
23 22 21 21 20 19 18 16 15 12 10 10 12 14 14 14 13 12 12 11 9 7 7 9 9 7 5 4 3 2 1 1 1 2 4 7 9 10 11 11 11 11 11
30 28 25 22 22 25 23 20 17 15 13 13 14 15 15 15 14 12 12 10 8 7 8 9 8 6 5 4 4 3 2 1 0 1 3 6 8 9 9 9 9 9 9
36 36 31 24 24 27 26 23 19 17 17 18 19 18 17 16 15 14 12 8 7 8 8 8 8 7 6 6 5 4 2 1 0 0 1 4 6 7 8 8 7 7 7
44 44 39 32 30 30 27 25 23 22 22 22 22 21 19 17 16 15 12 9 8 9 9 8 9 8 7 6 6 4 3 1 0 0 0 2 4 6 7 7 6 7 7
48 48 46 43 40 37 31 28 27 27 26 25 24 24 22 17 14 13 11 9 9 10 10 11 11 9 7 7 6 4 3 3 2 0 0 0 2 5 6 6 6 6 6
48 48 47 46 46 42 36 32 31 31 29 26 25 26 25 19 15 12 10 9 10 11 13 14 12 10 7 7 7 5 3 3 3 1 0 0 1 3 5 5 5 5 5
46 45 44 45 45 43 39 33 31 31 29 26 25 25 23 20 16 12 12 11 12 14 15 14 12 10 8 8 9 6 4 3 2 1 1 1 1 3 4 4 4 5 6
43 43 44 45 43 41 38 32 29 28 26 24 25 24 21 18 16 13 13 14 15 16 15 13 12 11 10 10 11 9 6 3 2 2 1 1 1 2 3 3 3 5 6
40 42 45 46 43 41 39 34 29 26 24 24 24 24 21 19 16 14 13 15 16 16 14 13 13 13 12 11 12 12 10 7 4 2 1 0 1 2 3 3 3 4 6
38 42 46 46 44 41 39 37 33 27 24 24 24 23 22 21 19 16 15 16 17 16 15 13 14 14 14 13 13 14 14 11 8 5 2 0 1 2 3 3 3 5 6
38 42 45 45 44 40 38 37 34 29 25 25 25 24 22 22 22 20 18 17 18 18 17 15 14 14 15 15 14 15 15 14 11 7 4 1 0 1 3 4 5 5 5
Wind_Speed
14 13 13 13 11 10 10 9 9 8 8 7 7 8 8 8 8 7 7 6 6 6 6 5 4 3 2 3 3 3 4 4 5 6 7 8 9 9 9 8 8 7 11
16 14 15 13 11 10 10 9 9 8 8 7 7 7 7 7 7 6 6 6 5 5 6 5 4 3 2 2 2 3 3 4 5 7 8 8 9 9 9 9 8 7 11
16 14 14 12 11 11 10 9 8 8 8 7 7 7 7 6 6 6 6 6 5 5 5 4 4 3 2 2 2 2 3 4 5 6 7 6 8 10 9 10 10 11 11
15 13 13 13 11 10 9 9 8 8 7 7 7 7 6 6 5 5 5 5 5 5 4 3 3 2 1 1 2 2 3 3 5 6 5 5 7 11 11 11 11 11 11
15 14 13 13 11 10 9 8 8 7 7 7 6 6 5 5 5 5 5 4 4 4 4 3 3 2 1 1 2 2 2 3 4 4 3 6 6 11 12 12 11 11 11
15 15 14 13 11 10 9 8 7 7 6 6 6 5 4 4 4 4 4 4 4 3 3 3 2 2 1 0 1 2 2 3 2 3 4 6 7 11 13 12 11 11 11
15 14 14 13 11 10 9 8 7 7 5 5 4 4 4 4 4 4 4 4 4 4 3 3 3 2 1 1 1 1 2 2 2 3 5 6 9 13 13 12 11 11 11
15 14 13 13 12 10 9 8 7 6 5 4 3 3 3 3 3 4 4 4 4 4 3 3 3 2 1 1 1 2 2 2 2 4 5 7 11 13 13 12 11 11 11
13 13 11 11 10 10 10 8 7 6 5 4 3 2 2 2 3 4 4 4 4 4 4 3 3 2 1 1 1 2 2 1 1 3 5 6 11 13 13 12 11 11 11
11 12 10 10 10 9 9 9 8 7 6 5 4 3 3 3 3 4 4 3 3 3 2 2 2 1 1 1 2 3 2 1 2 4 4 7 12 13 13 12 12 11 11
9 9 8 8 8 7 8 9 8 8 6 5 4 5 4 2 2 3 4 5 3 3 2 1 1 1 1 2 3 3 2 1 3 3 4 9 13 14 13 12 12 11 11
8 7 6 6 5 5 5 5 5 5 5 4 2 2 2 1 0 2 5 6 4 4 3 2 3 2 3 1 2 2 1 2 2 3 5 11 12 13 13 12 11 11 11
8 6 6 5 5 4 4 3 1 2 3 3 2 1 0 1 1 1 2 2 2 3 2 1 2 1 0 1 1 1 2 1 2 3 5 10 11 13 12 12 12 11 11
8 7 6 6 5 3 3 2 2 1 2 2 2 1 2 1 1 1 1 1 0 0 1 1 0 1 2 2 1 2 2 2 3 3 5 9 11 12 12 12 11 11 11
7 7 6 6 5 3 3 1 1 1 1 2 2 1 1 1 1 1 1 1 0 0 1 1 1 2 2 2 2 2 2 3 3 4 4 9 10 11 12 11 11 11 11
7 6 6 6 6 4 2 1 1 1 1 2 2 2 1 1 1 1 1 1 1 1 1 1 1 1 1 1 1 2 2 3 2 3 4 6 10 11 11 11 11 10 10
7 6 6 5 6 3 2 1 0 1 1 1 2 2 1 1 1 1 1 0 1 1 1 1 1 1 1 1 1 1 2 2 2 2 3 4 5 9 11 11 10 10 10
6 6 4 4 5 4 2 1 0 1 1 1 2 2 2 2 1 0 0 1 0 0 0 0 1 0 1 1 1 1 1 2 2 2 2 3 4 5 7 11 11 10 10
6 6 5 4 5 4 2 1 1 1 1 1 1 1 1 1 1 1 1 1 0 1 0 0 1 1 0 1 0 1 1 2 2 2 3 3 3 5 5 9 11 11 11
7 6 5 4 4 3 2 1 1 1 0 1 1 1 1 1 1 1 0 0 1 0 0 1 1 0 0 0 0 1 1 1 1 2 2 2 2 4 6 7 7 8 11
7 6 5 4 4 2 1 1 1 1 1 1 1 1 0 0 0 1 1 1 0 0 0 0 0 0 0 0 1 1 0 1 2 2 2 2 2 3 4 6 5 5 6
7 6 5 4 4 2 1 1 1 1 1 1 1 1 1 0 0 0 1 0 0 0 0 0 0 0 0 0 0 0 0 1 1 1 2 2 2 1 3 6 5 5 5
7 6 5 4 4 2 1 1 0 1 1 1 1 1 0 0 0 1 1 0 0 0 0 0 0 0 1 1 1 0 1 1 1 1 1 2 2 1 2 3 6 6 6
7 7 6 5 4 2 2 1 1 1 1 0 0 1 1 0 0 0 1 0 1 1 1 0 1 1 1 1 1 1 1 2 1 1 1 1 2 2 2 2 4 5 5
7 7 6 5 4 3 2 2 1 1 0 0 0 1 1 1 1 1 1 0 0 1 1 1 2 2 1 1 1 1 1 1 1 1 1 1 1 1 2 2 2 3 4
6 6 6 5 4 2 2 2 2 1 0 0 0 0 1 1 1 2 1 1 1 1 1 1 1 1 1 2 1 1 1 1 1 1 2 2 1 1 2 1 2 3 3
Wind_Direction
104 108 109 108 103 100 95 93 91 88 83 79 75 73 71 71 67 66 66 67 70 70 66 67 75 78 93 103 117 123 130 134 139 140 141 144 143 142 141 137 134 118 115
107 110 110 108 106 102 98 94 90 86 83 80 78 76 73 72 70 68 65 64 68 71 69 65 67 74 96 120 137 147 150 155 161 160 154 147 143 143 140 135 127 115 121
107 113 114 110 107 103 100 95 89 85 82 79 77 75 74 73 71 67 68 65 67 72 73 66 59 66 92 138 160 170 172 178 183 179 174 156 142 141 137 131 125 123 125
110 114 111 114 109 106 102 98 93 87 82 79 76 74 74 74 72 68 69 71 69 71 71 65 52 55 91 161 186 190 191 197 204 201 181 151 144 142 138 134 133 129 126
111 109 113 115 112 109 106 103 97 91 85 80 76 74 72 73 73 71 69 74 73 70 64 58 52 54 110 181 205 210 217 218 218 201 151 132 132 140 141 140 139 133 131
119 116 118 120 117 114 111 108 103 96 90 85 79 76 73 72 73 73 69 68 69 64 58 50 48 53 67 209 220 221 244 243 218 157 143 133 132 141 142 142 142 138 137
118 118 124 126 124 123 120 115 111 106 100 93 89 79 72 74 79 75 69 64 62 59 52 48 46 37 9 285 250 265 276 271 197 137 135 136 137 141 142 143 144 143 140
118 121 128 135 134 134 129 124 121 117 115 109 103 93 81 81 89 88 79 74 66 57 52 47 50 43 25 313 274 271 274 272 129 121 126 124 136 140 142 141 143 144 142
118 124 136 141 145 145 140 137 137 136 135 136 139 139 126 128 131 117 104 91 76 65 58 57 56 34 13 297 265 265 267 244 125 123 131 123 134 139 141 142 143 144 144
122 126 137 144 149 154 152 152 153 156 157 165 175 186 184 176 174 158 138 127 110 90 78 71 69 34 3 245 253 250 254 253 146 134 123 130 136 139 142 144 144 146 148
115 122 132 135 143 147 149 151 162 167 175 184 191 201 204 199 181 165 142 144 147 144 144 157 163 213 299 250 240 246 244 136 118 120 118 134 139 142 145 147 148 147 149
123 125 124 127 128 127 123 140 171 164 158 181 168 176 192 210 130 105 130 149 164 173 187 209 220 240 264 258 213 226 156 118 120 114 125 139 142 146 148 150 151 150 151
128 125 118 116 106 102 104 132 135 135 144 171 135 117 80 52 68 91 112 139 174 188 193 194 221 233 245 51 55 96 97 92 102 106 128 139 146 148 148 149 150 150 151
135 133 123 112 107 94 93 105 120 118 128 112 105 72 51 33 37 56 64 71 168 204 159 141 144 74 49 63 61 75 76 80 88 104 129 145 149 149 150 151 152 152 151
131 127 121 110 97 83 70 46 91 89 95 107 98 85 65 47 40 51 61 47 353 342 52 58 45 62 47 39 55 73 77 70 79 107 126 142 146 150 153 155 155 156 156
128 123 115 113 105 99 95 58 25 69 78 102 102 95 77 60 42 23 44 28 2 360 23 58 40 63 74 49 50 58 73 73 86 111 131 142 151 155 159 160 160 161 161
122 117 113 120 110 113 118 119 82 70 65 74 86 76 67 74 63 28 26 41 340 4 35 59 45 47 121 132 117 94 93 96 93 115 135 147 155 160 163 164 164 164 165
125 115 121 131 119 117 107 96 20 61 67 66 85 85 49 39 46 1 8 356 348 22 22 114 113 32 49 58 85 94 112 121 122 128 143 149 150 155 162 165 166 166 169
116 118 125 109 118 128 122 145 115 59 38 56 70 81 54 60 39 319 359 4 351 70 325 334 86 112 83 56 62 120 124 128 136 146 137 143 145 151 158 166 169 169 171
118 119 123 119 115 124 132 139 133 127 161 78 59 63 51 23 360 302 153 355 333 72 47 42 48 82 184 264 9 52 89 118 118 123 131 140 153 158 162 163 169 173 173
123 123 125 122 109 124 140 156 163 187 188 134 129 82 105 347 319 314 0 55 314 82 38 75 104 141 128 145 113 40 114 130 113 116 124 137 149 162 154 154 164 162 167
129 130 128 123 121 142 134 167 187 177 182 154 101 74 50 341 308 196 66 352 242 117 77 11 356 58 259 91 28 187 38 76 104 127 120 124 128 143 146 152 155 151 155
138 139 138 131 135 143 129 168 107 70 6 66 113 113 74 290 302 342 94 8 300 142 125 214 330 296 303 5 34 39 102 85 108 82 91 105 128 108 124 144 147 146 149
144 142 134 132 133 137 153 170 161 147 191 239 143 128 153 226 2 38 60 71 342 15 64 316 70 320 329 320 347 50 82 105 114 112 92 108 130 122 127 145 140 144 147
142 141 138 132 138 153 171 168 185 159 190 98 94 110 124 96 65 72 87 97 41 18 36 6 45 19 11 357 353 21 64 72 85 131 144 149 135 138 146 152 137 138 144
136 133 133 134 144 158 176 172 180 183 204 152 77 79 95 78 45 33 61 70 63 34 41 44 46 54 25 12 15 22 53 79 115 131 145 157 147 146 142 149 141 142 146